Location: Proctor
(47.8934°N, 114.3048°W)
Time: 17:30:52
(UTC+00:00)

Transit 4A - Pass Details

Date: 13 May 2025
Orbit: 866 x 975 km, 66.8° (Epoch: 13 June)

Event Time Altitude Azimuth Distance (km) Brightness Sun altitude
Rises 07:01:43 0° 287° (WNW) 3,656 11.3 -23.3°
Reaches altitude 10° 07:05:35 10° 310° (NW) 2,695 10.9 -23.3°
Maximum altitude 07:09:06 15° 344° (NNW) 2,321 10.9 -23.4°
Drops below altitude 10° 07:12:35 10° 19° (NNE) 2,659 11.2 -23.5°
Sets 07:16:22 0° 42° (NE) 3,580 11.6 -23.5°
